,,,PA_Meas_PMT16A,,PR_Meas_QMR101_102,,RH_Meas_QMH101,,SR_Meas_QMS101,,TA_Meas_QMH101,,GenWind,,GenWind,
date,time,status,PA,status,PR,status,RH,status,SR,status,TA,status,DirAvg,status,SpdAvg,
2010-07-23, 00:00:04,VALID,1001.4,VALID,0,VALID,87.7101,VALID,0,VALID,24.3647,VALID,134,VALID,2.50039,
2010-07-23, 00:01:04,VALID,1001.4,VALID,0,VALID,87.6109,VALID,0,VALID,24.4037,VALID,146,VALID,2.23398,
2010-07-23, 00:02:04,VALID,1001.43,VALID,0,VALID,87.7711,VALID,0,VALID,24.4428,VALID,141,VALID,1.87852,
2010-07-23, 00:03:04,VALID,1001.4,VALID,0,VALID,87.4889,VALID,0,VALID,24.4233,VALID,133,VALID,2.37266,
2010-07-23, 00:04:05,VALID,1001.37,VALID,0,VALID,87.3363,VALID,0,VALID,24.4233,VALID,137,VALID,2.43516,
2010-07-23, 00:05:05,VALID,1001.35,VALID,0,VALID,87.176,VALID,0,VALID,24.4623,VALID,130,VALID,2.54844,
2010-07-23, 00:06:05,VALID,1001.34,VALID,0,VALID,87.3057,VALID,0,VALID,24.5013,VALID,135,VALID,1.83711,
2010-07-23, 00:07:05,VALID,1001.36,VALID,0,VALID,87.527,VALID,0,VALID,24.4623,VALID,140,VALID,1.7582,
2010-07-23, 00:08:05,VALID,1001.28,VALID,0,VALID,87.6949,VALID,0,VALID,24.4428,VALID,140,VALID,1.59453,
2010-07-23, 00:09:05,VALID,1001.24,VALID,0,VALID,87.4049,VALID,0,VALID,24.4037,VALID,141,VALID,2.34492,
2010-07-23, 00:10:05,VALID,1001.21,VALID,0,VALID,87.0082,VALID,0,VALID,24.4037,VALID,146,VALID,2.61953,
2010-07-23, 00:11:05,VALID,1001.21,VALID,0,VALID,87.0997,VALID,0,VALID,24.4428,VALID,148,VALID,2.28047,
2010-07-23, 00:12:05,VALID,1001.15,VALID,0,VALID,86.909,VALID,0,VALID,24.4428,VALID,156,VALID,2.23281,
2010-07-23, 00:13:05,VALID,1001.13,VALID,0,VALID,87.0234,VALID,0,VALID,24.4428,VALID,143,VALID,1.91523,
2010-07-23, 00:14:05,VALID,1001.11,VALID,0,VALID,87.2523,VALID,0,VALID,24.4428,VALID,148,VALID,1.92969,
2010-07-23, 00:15:05,VALID,1001.07,VALID,0,VALID,86.7869,VALID,0,VALID,24.4428,VALID,153,VALID,2.28867,
2010-07-23, 00:16:05,VALID,1001.06,VALID,0,VALID,87.2371,VALID,0,VALID,24.4623,VALID,154,VALID,2.27617,
2010-07-23, 00:17:05,VALID,1001.05,VALID,0,VALID,86.9395,VALID,0,VALID,24.4623,VALID,149,VALID,2.43477,
2010-07-23, 00:18:05,VALID,1001.04,VALID,0,VALID,86.5657,VALID,0,VALID,24.4409,VALID,158,VALID,2.8793,
2010-07-23, 00:19:05,VALID,1001.07,VALID,0,VALID,86.7183,VALID,0,VALID,24.4623,VALID,167,VALID,2.37266,
2010-07-23, 00:20:05,VALID,1001.05,VALID,0,VALID,86.4817,VALID,0,VALID,24.4409,VALID,160,VALID,2.89414,
2010-07-23, 00:21:05,VALID,1001.05,VALID,0,VALID,86.5886,VALID,0,VALID,24.4818,VALID,166,VALID,2.2375,
2010-07-23, 00:22:05,VALID,1001.04,VALID,0,VALID,87.0921,VALID,0,VALID,24.4409,VALID,171,VALID,2.00859,
2010-07-23, 00:23:05,VALID,1001.05,VALID,0,VALID,87.2523,VALID,0,VALID,24.4233,VALID,162,VALID,2.18438,
2010-07-23, 00:24:05,VALID,1001.07,VALID,0,VALID,87.2981,VALID,0,VALID,24.4037,VALID,168,VALID,2.07891,
2010-07-23, 00:25:05,VALID,1001.07,VALID,0,VALID,86.9929,VALID,0,VALID,24.4233,VALID,178,VALID,2.62812,
2010-07-23, 00:26:05,VALID,1001.09,VALID,0,VALID,87.0769,VALID,0,VALID,24.4428,VALID,177,VALID,2.09883,
2010-07-23, 00:27:05,VALID,1001.06,VALID,0,VALID,87.3057,VALID,0,VALID,24.4428,VALID,190,VALID,2.26211,
2010-07-23, 00:28:05,VALID,1001.1,VALID,0,VALID,86.2071,VALID,0,VALID,24.4428,VALID,179,VALID,2.69766,
2010-07-23, 00:29:05,VALID,1001.1,VALID,0,VALID,86.3978,VALID,0,VALID,24.4623,VALID,177,VALID,2.51797,
2010-07-23, 00:30:05,VALID,1001.12,VALID,0,VALID,86.7335,VALID,0,VALID,24.4214,VALID,177,VALID,2.14219,
2010-07-23, 00:31:05,VALID,1001.11,VALID,0,VALID,86.703,VALID,0,VALID,24.4233,VALID,175,VALID,2.05234,
2010-07-23, 00:32:05,VALID,1001.08,VALID,0,VALID,87.6109,VALID,0,VALID,24.4233,VALID,171,VALID,1.71328,
2010-07-23, 00:33:05,VALID,1001.11,VALID,0,VALID,86.8556,VALID,0,VALID,24.4037,VALID,171,VALID,2.42266,
2010-07-23, 00:34:05,VALID,1001.15,VALID,0,VALID,87.3668,VALID,0,VALID,24.3861,VALID,164,VALID,1.80313,
2010-07-23, 00:35:05,VALID,1001.16,VALID,0,VALID,86.848,VALID,0,VALID,24.3257,VALID,170,VALID,2.26836,
2010-07-23, 00:36:05,VALID,1001.15,VALID,0,VALID,86.4817,VALID,0,VALID,24.3257,VALID,176,VALID,2.79883,
2010-07-23, 00:37:05,VALID,1001.19,VALID,0,VALID,86.8709,VALID,0,VALID,24.3257,VALID,170,VALID,1.70352,
2010-07-23, 00:38:05,VALID,1001.18,VALID,0,VALID,86.3902,VALID,0,VALID,24.2866,VALID,163,VALID,2.26094,
2010-07-23, 00:39:05,VALID,1001.21,VALID,0,VALID,87.2676,VALID,0,VALID,24.2848,VALID,173,VALID,1.62148,
2010-07-23, 00:40:05,VALID,1001.2,VALID,0,VALID,87.1913,VALID,0,VALID,24.3062,VALID,173,VALID,1.69844,
2010-07-23, 00:41:05,VALID,1001.22,VALID,0,VALID,87.3134,VALID,0,VALID,24.2866,VALID,173,VALID,1.43203,
2010-07-23, 00:42:05,VALID,1001.22,VALID,0,VALID,87.26,VALID,0,VALID,24.2671,VALID,168,VALID,1.70977,
2010-07-23, 00:43:05,VALID,1001.24,VALID,0,VALID,87.6338,VALID,0,VALID,24.2671,VALID,188,VALID,1.18984,
2010-07-23, 00:44:05,VALID,1001.2,VALID,0,VALID,87.5804,VALID,0,VALID,24.2458,VALID,191,VALID,1.11172,
2010-07-23, 00:45:05,VALID,1001.19,VALID,0,VALID,86.9548,VALID,0,VALID,24.2476,VALID,208,VALID,1.6293,
2010-07-23, 00:46:05,VALID,1001.19,VALID,0,VALID,86.7564,VALID,0,VALID,24.2263,VALID,194,VALID,1.77852,
2010-07-23, 00:47:05,VALID,1001.14,VALID,0,VALID,87.2523,VALID,0,VALID,24.2281,VALID,195,VALID,1.2707,
2010-07-23, 00:48:05,VALID,1001.17,VALID,0,VALID,87.5575,VALID,0,VALID,24.1891,VALID,180,VALID,1.53477,
2010-07-23, 00:49:05,VALID,1001.16,VALID,0,VALID,87.8856,VALID,0,VALID,24.1696,VALID,166,VALID,1.4832,
2010-07-23, 00:50:05,VALID,1001.12,VALID,0,VALID,88.0306,VALID,0,VALID,24.15,VALID,179,VALID,1.74453,
2010-07-23, 00:51:05,VALID,1001.12,VALID,0,VALID,88.7096,VALID,0,VALID,24.1305,VALID,173,VALID,1.42695,
2010-07-23, 00:52:05,VALID,1001.11,VALID,0,VALID,88.4197,VALID,0,VALID,24.111,VALID,176,VALID,1.87695,
2010-07-23, 00:53:05,VALID,1001.08,VALID,0,VALID,87.9543,VALID,0,VALID,24.0506,VALID,183,VALID,1.60977,
2010-07-23, 00:54:05,VALID,1001.1,VALID,0,VALID,87.1608,VALID,0,VALID,24.0525,VALID,184,VALID,2.05234,
2010-07-23, 00:55:05,VALID,1001.12,VALID,0,VALID,87.5575,VALID,0,VALID,24.0915,VALID,187,VALID,1.55039,
2010-07-23, 00:56:05,VALID,1001.15,VALID,0,VALID,88.4731,VALID,0,VALID,24.111,VALID,219,VALID,0.569922,
2010-07-23, 00:57:05,VALID,1001.16,VALID,0,VALID,88.5265,VALID,0,VALID,24.0915,VALID,204,VALID,0.607813,
2010-07-23, 00:58:05,VALID,1001.15,VALID,0,VALID,88.1984,VALID,0,VALID,24.0329,VALID,223,VALID,0.569922,
2010-07-23, 00:59:05,VALID,1001.15,VALID,0,VALID,88.7172,VALID,0,VALID,24.0134,VALID,284,VALID,0.908594,
2010-07-23, 01:00:05,VALID,1001.2,VALID,0,VALID,89.0071,VALID,0,VALID,23.9531,VALID,280,VALID,0.851953,
2010-07-23, 01:01:05,VALID,1001.2,VALID,0,VALID,89.1216,VALID,0,VALID,23.8945,VALID,287,VALID,0.747266,
2010-07-23, 01:02:05,VALID,1001.21,VALID,0,VALID,89.5107,VALID,0,VALID,23.8768,VALID,287,VALID,0.932813,
2010-07-23, 01:03:05,VALID,1001.19,VALID,0,VALID,89.8998,VALID,0,VALID,23.797,VALID,287,VALID,0.726172,
2010-07-23, 01:04:05,VALID,1001.19,VALID,0,VALID,90.2813,VALID,0,VALID,23.7988,VALID,287,VALID,0.479688,
2010-07-23, 01:05:05,VALID,1001.2,VALID,0,VALID,90.3881,VALID,0,VALID,23.7597,VALID,280,VALID,0.569922,
2010-07-23, 01:06:05,VALID,1001.18,VALID,0,VALID,90.6628,VALID,0,VALID,23.7207,VALID,280,VALID,0.548047,
2010-07-23, 01:07:05,VALID,1001.16,VALID,0.5,VALID,90.8383,VALID,0,VALID,23.6994,VALID,278,VALID,0.468359,
2010-07-23, 01:08:05,VALID,1001.15,VALID,0,VALID,91.0214,VALID,0,VALID,23.7012,VALID,282,VALID,0.716406,
2010-07-23, 01:09:05,VALID,1001.17,VALID,0,VALID,91.0748,VALID,0,VALID,23.6622,VALID,285,VALID,0.869531,
2010-07-23, 01:10:05,VALID,1001.15,VALID,0,VALID,91.1892,VALID,0,VALID,23.6427,VALID,298,VALID,1.23242,
2010-07-23, 01:11:05,VALID,1001.17,VALID,0,VALID,91.235,VALID,0,VALID,23.6036,VALID,296,VALID,1.31289,
2010-07-23, 01:12:05,VALID,1001.2,VALID,0,VALID,91.3494,VALID,0,VALID,23.6036,VALID,305,VALID,1.4125,
2010-07-23, 01:13:05,VALID,1001.23,VALID,0,VALID,91.5707,VALID,0,VALID,23.5841,VALID,302,VALID,1.37344,
2010-07-23, 01:14:05,VALID,1001.25,VALID,0,VALID,91.586,VALID,0,VALID,23.5646,VALID,309,VALID,1.24258,
2010-07-23, 01:15:05,VALID,1001.24,VALID,0,VALID,91.7004,VALID,0,VALID,23.5451,VALID,314,VALID,0.839453,
2010-07-23, 01:16:05,VALID,1001.24,VALID,0,VALID,91.7309,VALID,0,VALID,23.5256,VALID,306,VALID,1.2043,
2010-07-23, 01:17:05,VALID,1001.24,VALID,0,VALID,91.8606,VALID,0,VALID,23.5043,VALID,331,VALID,0.907422,
2010-07-23, 01:18:05,VALID,1001.22,VALID,0,VALID,91.9522,VALID,0,VALID,23.5061,VALID,317,VALID,0.579687,
2010-07-23, 01:19:05,VALID,1001.18,VALID,0,VALID,91.9827,VALID,0,VALID,23.4866,VALID,303,VALID,0.867969,
2010-07-23, 01:20:05,VALID,1001.19,VALID,0,VALID,91.9445,VALID,0,VALID,23.4866,VALID,296,VALID,1.45625,
2010-07-23, 01:21:05,VALID,1001.16,VALID,0,VALID,91.8759,VALID,0,VALID,23.5061,VALID,291,VALID,1.29883,
2010-07-23, 01:22:05,VALID,1001.14,VALID,0,VALID,91.8606,VALID,0,VALID,23.5061,VALID,234,VALID,0.448828,
2010-07-23, 01:23:05,VALID,1001.1,VALID,0,VALID,91.8835,VALID,0,VALID,23.5256,VALID,291,VALID,0.809766,
2010-07-23, 01:24:05,VALID,1001.1,VALID,0,VALID,91.792,VALID,0,VALID,23.5061,VALID,313,VALID,1.61094,
2010-07-23, 01:25:05,VALID,1001.07,VALID,0,VALID,91.7614,VALID,0,VALID,23.5043,VALID,302,VALID,1.49414,
2010-07-23, 01:26:05,VALID,1001.07,VALID,0,VALID,91.7157,VALID,0,VALID,23.5256,VALID,277,VALID,0.899609,
2010-07-23, 01:27:05,VALID,1001.02,VALID,0,VALID,91.5554,VALID,0,VALID,23.5256,VALID,266,VALID,0.692187,
2010-07-23, 01:28:05,VALID,1001.03,VALID,0,VALID,91.4791,VALID,0,VALID,23.5238,VALID,274,VALID,0.812891,
2010-07-23, 01:29:05,VALID,1001.01,VALID,0,VALID,91.3418,VALID,0,VALID,23.5451,VALID,266,VALID,0.5625,
2010-07-23, 01:30:05,VALID,1000.99,VALID,0.5,VALID,91.1968,VALID,0,VALID,23.5451,VALID,235,VALID,0.705078,
2010-07-23, 01:31:05,VALID,1000.98,VALID,0,VALID,91.0671,VALID,0,VALID,23.5646,VALID,230,VALID,0.760156,
2010-07-23, 01:32:05,VALID,1000.97,VALID,0,VALID,91.0137,VALID,0,VALID,23.5646,VALID,222,VALID,0.287891,
2010-07-23, 01:33:05,VALID,1000.96,VALID,0,VALID,90.9451,VALID,0,VALID,23.5433,VALID,212,VALID,0.877344,
2010-07-23, 01:34:05,VALID,1000.94,VALID,0,VALID,90.823,VALID,0,VALID,23.5646,VALID,202,VALID,0.807031,
2010-07-23, 01:35:05,VALID,1000.94,VALID,0,VALID,90.762,VALID,0,VALID,23.5823,VALID,214,VALID,1.19687,
2010-07-23, 01:36:05,VALID,1000.92,VALID,0,VALID,90.6704,VALID,0,VALID,23.6036,VALID,218,VALID,1.23047,
2010-07-23, 01:37:05,VALID,1000.89,VALID,0,VALID,90.5941,VALID,0,VALID,23.6036,VALID,205,VALID,0.830078,
2010-07-23, 01:38:05,VALID,1000.9,VALID,0,VALID,90.3423,VALID,0,VALID,23.6036,VALID,192,VALID,1.075,
2010-07-23, 01:39:05,VALID,1000.92,VALID,0,VALID,90.3042,VALID,0,VALID,23.6232,VALID,187,VALID,0.996094,
2010-07-23, 01:40:05,VALID,1000.93,VALID,0,VALID,90.6857,VALID,0,VALID,23.6427,VALID,195,VALID,0.816797,
2010-07-23, 01:41:05,VALID,1000.93,VALID,0.5,VALID,90.266,VALID,0,VALID,23.6427,VALID,212,VALID,0.936719,
2010-07-23, 01:42:05,VALID,1000.91,VALID,0,VALID,90.2966,VALID,0,VALID,23.6427,VALID,200,VALID,1.25469,
2010-07-23, 01:43:05,VALID,1000.93,VALID,0,VALID,90.3347,VALID,0,VALID,23.6409,VALID,200,VALID,0.818359,
2010-07-23, 01:44:05,VALID,1000.93,VALID,0,VALID,89.9837,VALID,0,VALID,23.6427,VALID,196,VALID,1.35117,
2010-07-23, 01:45:05,VALID,1000.95,VALID,0,VALID,89.8464,VALID,0,VALID,23.6214,VALID,187,VALID,1.16406,
2010-07-23, 01:46:05,VALID,1000.96,VALID,0,VALID,90.2279,VALID,0,VALID,23.6427,VALID,191,VALID,1.20234,
2010-07-23, 01:47:05,VALID,1001.01,VALID,0,VALID,90.0143,VALID,0,VALID,23.6427,VALID,189,VALID,1.66562,
2010-07-23, 01:48:05,VALID,1000.96,VALID,0,VALID,89.9761,VALID,0,VALID,23.6232,VALID,196,VALID,1.55664,
2010-07-23, 01:49:05,VALID,1001,VALID,0,VALID,90.1516,VALID,0,VALID,23.6427,VALID,202,VALID,1.32852,
2010-07-23, 01:50:05,VALID,1001.02,VALID,0,VALID,90.2279,VALID,0,VALID,23.6232,VALID,187,VALID,1.23789,
2010-07-23, 01:51:05,VALID,1001.02,VALID,0,VALID,90.5712,VALID,0,VALID,23.6427,VALID,204,VALID,0.798437,
2010-07-23, 01:52:05,VALID,1001.01,VALID,0,VALID,90.5788,VALID,0,VALID,23.6232,VALID,218,VALID,0.742188,
2010-07-23, 01:53:05,VALID,1001.02,VALID,0,VALID,90.6399,VALID,0,VALID,23.5841,VALID,222,VALID,0.459375,
2010-07-23, 01:54:05,VALID,1001.02,VALID,0,VALID,90.9146,VALID,0,VALID,23.5841,VALID,296,VALID,0.776563,
2010-07-23, 01:55:05,VALID,1001.05,VALID,0,VALID,91.1892,VALID,0,VALID,23.5646,VALID,302,VALID,0.494531,
2010-07-23, 01:56:05,VALID,1001.03,VALID,0,VALID,91.3266,VALID,0,VALID,23.5256,VALID,302,VALID,0.558984,
2010-07-23, 01:57:05,VALID,1001.01,VALID,0,VALID,91.4486,VALID,0,VALID,23.5061,VALID,302,VALID,0.446094,
2010-07-23, 01:58:05,VALID,1001.03,VALID,0,VALID,91.6088,VALID,0,VALID,23.4671,VALID,302,VALID,0,
2010-07-23, 01:59:05,VALID,1001.02,VALID,0.5,VALID,91.7309,VALID,0,VALID,23.4475,VALID,302,VALID,0,
2010-07-23, 02:00:05,VALID,1000.99,VALID,0,VALID,91.8454,VALID,0,VALID,23.428,VALID,302,VALID,0,
2010-07-23, 02:01:05,VALID,1001.01,VALID,0,VALID,91.8911,VALID,0,VALID,23.4085,VALID,302,VALID,0,
2010-07-23, 02:02:05,VALID,1001.02,VALID,0,VALID,91.9598,VALID,0,VALID,23.4298,VALID,302,VALID,0,
2010-07-23, 02:03:05,VALID,1001.03,VALID,0,VALID,92.0285,VALID,0,VALID,23.389,VALID,302,VALID,0,
2010-07-23, 02:04:05,VALID,1001.01,VALID,0,VALID,92.12,VALID,0,VALID,23.389,VALID,302,VALID,0,
2010-07-23, 02:05:05,VALID,1001.03,VALID,0,VALID,92.1582,VALID,0,VALID,23.3677,VALID,302,VALID,0,
2010-07-23, 02:06:05,VALID,1001.01,VALID,0,VALID,92.2268,VALID,0,VALID,23.3695,VALID,302,VALID,0,
2010-07-23, 02:07:05,VALID,1000.99,VALID,0,VALID,92.2955,VALID,0,VALID,23.35,VALID,302,VALID,0,
2010-07-23, 02:08:05,VALID,1000.99,VALID,0,VALID,92.3566,VALID,0,VALID,23.3713,VALID,301,VALID,0,
2010-07-23, 02:09:05,VALID,1001.03,VALID,0,VALID,92.4176,VALID,0,VALID,23.35,VALID,301,VALID,0,
2010-07-23, 02:10:05,VALID,1000.98,VALID,0,VALID,92.4786,VALID,0,VALID,23.35,VALID,301,VALID,0,
2010-07-23, 02:11:05,VALID,1000.98,VALID,0,VALID,92.5397,VALID,0,VALID,23.3518,VALID,301,VALID,0,
2010-07-23, 02:12:05,VALID,1000.95,VALID,0.5,VALID,92.5778,VALID,0,VALID,23.3305,VALID,301,VALID,0,
2010-07-23, 02:13:05,VALID,1000.97,VALID,0,VALID,92.6388,VALID,0,VALID,23.3305,VALID,301,VALID,0,
2010-07-23, 02:14:05,VALID,1000.97,VALID,0,VALID,92.6236,VALID,0,VALID,23.311,VALID,301,VALID,0,
2010-07-23, 02:15:05,VALID,1000.98,VALID,0,VALID,92.6541,VALID,0,VALID,23.311,VALID,301,VALID,0,
2010-07-23, 02:16:05,VALID,1000.98,VALID,0,VALID,92.6465,VALID,0,VALID,23.311,VALID,301,VALID,0,
2010-07-23, 02:17:05,VALID,1000.93,VALID,0,VALID,92.6846,VALID,0,VALID,23.2915,VALID,301,VALID,0,
2010-07-23, 02:18:05,VALID,1000.95,VALID,0,VALID,92.6999,VALID,0,VALID,23.311,VALID,301,VALID,0,
2010-07-23, 02:19:05,VALID,1000.94,VALID,0,VALID,92.7228,VALID,0,VALID,23.3127,VALID,301,VALID,0,
2010-07-23, 02:20:05,VALID,1000.91,VALID,0,VALID,92.6999,VALID,0.112286,VALID,23.2702,VALID,301,VALID,0,
2010-07-23, 02:21:05,VALID,1000.92,VALID,0,VALID,92.6999,VALID,0,VALID,23.2702,VALID,301,VALID,0,
2010-07-23, 02:22:05,VALID,1000.89,VALID,0,VALID,92.7151,VALID,0,VALID,23.2702,VALID,301,VALID,0,
2010-07-23, 02:23:05,VALID,1000.91,VALID,0.5,VALID,92.6999,VALID,0,VALID,23.2507,VALID,301,VALID,0,
2010-07-23, 02:24:05,VALID,1000.88,VALID,0,VALID,92.6923,VALID,0,VALID,23.2312,VALID,301,VALID,0,
2010-07-23, 02:25:05,VALID,1000.89,VALID,0,VALID,92.6999,VALID,0,VALID,23.2312,VALID,301,VALID,0,
2010-07-23, 02:26:05,VALID,1000.89,VALID,0,VALID,92.738,VALID,0,VALID,23.2312,VALID,301,VALID,0,
2010-07-23, 02:27:05,VALID,1000.89,VALID,0,VALID,92.7151,VALID,0,VALID,23.2117,VALID,301,VALID,0,
2010-07-23, 02:28:05,VALID,1000.85,VALID,0,VALID,92.7075,VALID,0,VALID,23.2312,VALID,301,VALID,0,
2010-07-23, 02:29:05,VALID,1000.86,VALID,0,VALID,92.677,VALID,0,VALID,23.2117,VALID,301,VALID,0,
2010-07-23, 02:30:05,VALID,1000.85,VALID,0,VALID,92.6617,VALID,0,VALID,23.2117,VALID,301,VALID,0,
2010-07-23, 02:31:05,VALID,1000.87,VALID,0,VALID,92.6312,VALID,0.112286,VALID,23.2117,VALID,301,VALID,0,
2010-07-23, 02:32:05,VALID,1000.85,VALID,0,VALID,92.6236,VALID,0,VALID,23.2117,VALID,301,VALID,0,
2010-07-23, 02:33:05,VALID,1000.84,VALID,0,VALID,92.471,VALID,0,VALID,23.1921,VALID,301,VALID,0,
2010-07-23, 02:34:05,VALID,1000.8,VALID,0.5,VALID,92.3794,VALID,0,VALID,23.1921,VALID,301,VALID,0,
2010-07-23, 02:35:05,VALID,1000.79,VALID,0,VALID,92.3413,VALID,0,VALID,23.1939,VALID,301,VALID,0,
2010-07-23, 02:36:05,VALID,1000.78,VALID,0,VALID,92.2955,VALID,0,VALID,23.1939,VALID,301,VALID,0,
2010-07-23, 02:37:05,VALID,1000.76,VALID,0,VALID,92.3566,VALID,0,VALID,23.1939,VALID,301,VALID,0,
2010-07-23, 02:38:05,VALID,1000.77,VALID,0,VALID,92.4328,VALID,0,VALID,23.1939,VALID,301,VALID,0,
2010-07-23, 02:39:05,VALID,1000.75,VALID,0,VALID,92.532,VALID,0,VALID,23.2134,VALID,301,VALID,0,
2010-07-23, 02:40:05,VALID,1000.76,VALID,0,VALID,92.6236,VALID,0,VALID,23.2329,VALID,301,VALID,0,
2010-07-23, 02:41:05,VALID,1000.71,VALID,0,VALID,92.7151,VALID,0,VALID,23.2329,VALID,301,VALID,0,
2010-07-23, 02:42:05,VALID,1000.73,VALID,0,VALID,92.7609,VALID,0,VALID,23.2329,VALID,301,VALID,0,
2010-07-23, 02:43:05,VALID,1000.71,VALID,0,VALID,92.7991,VALID,0,VALID,23.2134,VALID,301,VALID,0,
2010-07-23, 02:44:05,VALID,1000.72,VALID,0,VALID,92.8448,VALID,0,VALID,23.2329,VALID,301,VALID,0,
2010-07-23, 02:45:05,VALID,1000.7,VALID,0,VALID,92.9288,VALID,0,VALID,23.2134,VALID,301,VALID,0,
2010-07-23, 02:46:05,VALID,1000.67,VALID,0,VALID,92.9745,VALID,0,VALID,23.2329,VALID,301,VALID,0,
2010-07-23, 02:47:05,VALID,1000.68,VALID,0,VALID,93.0127,VALID,0,VALID,23.2329,VALID,301,VALID,0,
2010-07-23, 02:48:04,VALID,1000.65,VALID,0.5,VALID,92.9898,VALID,0,VALID,23.1939,VALID,301,VALID,0,
2010-07-23, 02:49:04,VALID,1000.63,VALID,0,VALID,92.9135,VALID,0,VALID,23.1744,VALID,301,VALID,0,
2010-07-23, 02:50:04,VALID,1000.6,VALID,0,VALID,92.8143,VALID,0,VALID,23.1549,VALID,301,VALID,0,
2010-07-23, 02:51:04,VALID,1000.6,VALID,0,VALID,92.7228,VALID,0,VALID,23.1549,VALID,301,VALID,0,
2010-07-23, 02:52:04,VALID,1000.62,VALID,0,VALID,92.6846,VALID,0,VALID,23.1549,VALID,301,VALID,0,
2010-07-23, 02:53:04,VALID,1000.59,VALID,0,VALID,92.6617,VALID,0,VALID,23.1744,VALID,301,VALID,0,
2010-07-23, 02:54:04,VALID,1000.57,VALID,0,VALID,92.6694,VALID,0,VALID,23.1744,VALID,301,VALID,0,
2010-07-23, 02:55:04,VALID,1000.55,VALID,0,VALID,92.7151,VALID,0,VALID,23.1744,VALID,301,VALID,0,
2010-07-23, 02:56:04,VALID,1000.52,VALID,0,VALID,92.7609,VALID,0,VALID,23.1939,VALID,301,VALID,0,
2010-07-23, 02:57:04,VALID,1000.5,VALID,0,VALID,92.7762,VALID,0,VALID,23.1939,VALID,301,VALID,0,
2010-07-23, 02:58:04,VALID,1000.49,VALID,0,VALID,92.822,VALID,0,VALID,23.2134,VALID,301,VALID,0,
2010-07-23, 02:59:04,VALID,1000.44,VALID,0.5,VALID,92.8525,VALID,0,VALID,23.1939,VALID,301,VALID,0,
2010-07-23, 03:00:04,VALID,1000.44,VALID,0,VALID,92.883,VALID,0,VALID,23.2134,VALID,301,VALID,0,
2010-07-23, 03:01:04,VALID,1000.42,VALID,0,VALID,92.9135,VALID,0,VALID,23.2134,VALID,301,VALID,0,
2010-07-23, 03:02:04,VALID,1000.4,VALID,0,VALID,92.9593,VALID,0,VALID,23.2134,VALID,301,VALID,0,
2010-07-23, 03:03:04,VALID,1000.38,VALID,0,VALID,92.9669,VALID,0,VALID,23.2134,VALID,301,VALID,0,
2010-07-23, 03:04:04,VALID,1000.37,VALID,0,VALID,92.9974,VALID,0,VALID,23.2134,VALID,301,VALID,0,
2010-07-23, 03:05:04,VALID,1000.32,VALID,0,VALID,93.0356,VALID,0,VALID,23.1921,VALID,301,VALID,0,
2010-07-23, 03:06:04,VALID,1000.31,VALID,0,VALID,93.0814,VALID,0,VALID,23.2134,VALID,301,VALID,0,
2010-07-23, 03:07:04,VALID,1000.31,VALID,0,VALID,93.1119,VALID,0,VALID,23.2134,VALID,301,VALID,0,
2010-07-23, 03:08:04,VALID,1000.34,VALID,0,VALID,93.1119,VALID,0,VALID,23.1939,VALID,301,VALID,0,
2010-07-23, 03:09:04,VALID,1000.34,VALID,0,VALID,93.1043,VALID,0,VALID,23.2134,VALID,301,VALID,0,
2010-07-23, 03:10:04,VALID,1000.34,VALID,0,VALID,93.1271,VALID,0,VALID,23.1939,VALID,301,VALID,0,
2010-07-23, 03:11:04,VALID,1000.35,VALID,0,VALID,93.1271,VALID,0,VALID,23.1744,VALID,301,VALID,0,
2010-07-23, 03:12:04,VALID,1000.34,VALID,0,VALID,93.1119,VALID,0,VALID,23.1744,VALID,301,VALID,0,
2010-07-23, 03:13:04,VALID,1000.32,VALID,0,VALID,93.1271,VALID,0,VALID,23.1549,VALID,301,VALID,0,
2010-07-23, 03:14:04,VALID,1000.35,VALID,0,VALID,93.1577,VALID,0,VALID,23.1744,VALID,301,VALID,0,
2010-07-23, 03:15:04,VALID,1000.34,VALID,0,VALID,93.1653,VALID,0,VALID,23.1549,VALID,301,VALID,0,
2010-07-23, 03:16:04,VALID,1000.31,VALID,0,VALID,93.1729,VALID,0,VALID,23.1549,VALID,301,VALID,0,
2010-07-23, 03:17:04,VALID,1000.35,VALID,0.5,VALID,93.2034,VALID,0,VALID,23.1744,VALID,301,VALID,0,
2010-07-23, 03:18:04,VALID,1000.31,VALID,0,VALID,93.2263,VALID,0,VALID,23.1744,VALID,301,VALID,0,
2010-07-23, 03:19:04,VALID,1000.26,VALID,0,VALID,93.2568,VALID,0,VALID,23.1939,VALID,301,VALID,0,
2010-07-23, 03:20:04,VALID,1000.25,VALID,0,VALID,93.2645,VALID,0,VALID,23.1744,VALID,301,VALID,0,
2010-07-23, 03:21:04,VALID,1000.25,VALID,0,VALID,93.295,VALID,0,VALID,23.1744,VALID,301,VALID,0,
2010-07-23, 03:22:04,VALID,1000.26,VALID,0,VALID,93.295,VALID,0,VALID,23.1744,VALID,301,VALID,0,
2010-07-23, 03:23:04,VALID,1000.25,VALID,0,VALID,93.3331,VALID,0,VALID,23.1744,VALID,301,VALID,0,
2010-07-23, 03:24:04,VALID,1000.25,VALID,0,VALID,93.3255,VALID,0,VALID,23.1744,VALID,301,VALID,0,
2010-07-23, 03:25:04,VALID,1000.24,VALID,0,VALID,93.3637,VALID,0,VALID,23.1744,VALID,301,VALID,0,
2010-07-23, 03:26:04,VALID,1000.23,VALID,0,VALID,93.3789,VALID,0,VALID,23.1744,VALID,301,VALID,0,
2010-07-23, 03:27:04,VALID,1000.2,VALID,0,VALID,93.4018,VALID,0,VALID,23.1939,VALID,301,VALID,0,
2010-07-23, 03:28:04,VALID,1000.22,VALID,0,VALID,93.3942,VALID,0,VALID,23.1744,VALID,301,VALID,0,
2010-07-23, 03:29:04,VALID,1000.23,VALID,0,VALID,93.4018,VALID,0,VALID,23.1549,VALID,301,VALID,0,
2010-07-23, 03:30:04,VALID,1000.21,VALID,0,VALID,93.4171,VALID,0,VALID,23.1531,VALID,301,VALID,0,
2010-07-23, 03:31:04,VALID,1000.2,VALID,0,VALID,93.4247,VALID,0,VALID,23.1744,VALID,301,VALID,0,
2010-07-23, 03:32:04,VALID,1000.19,VALID,0,VALID,93.4476,VALID,0,VALID,23.1549,VALID,301,VALID,0,
2010-07-23, 03:33:04,VALID,1000.16,VALID,0,VALID,93.4628,VALID,0,VALID,23.1549,VALID,301,VALID,0,
2010-07-23, 03:34:04,VALID,1000.2,VALID,0,VALID,93.4552,VALID,0,VALID,23.1549,VALID,301,VALID,0,
2010-07-23, 03:35:04,VALID,1000.2,VALID,0,VALID,93.4705,VALID,0,VALID,23.1531,VALID,301,VALID,0,
2010-07-23, 03:36:04,VALID,1000.2,VALID,0,VALID,93.4781,VALID,0,VALID,23.1531,VALID,301,VALID,0,
2010-07-23, 03:37:04,VALID,1000.22,VALID,0,VALID,93.5163,VALID,0.112286,VALID,23.1531,VALID,301,VALID,0,
2010-07-23, 03:38:04,VALID,1000.21,VALID,0,VALID,93.4781,VALID,0,VALID,23.1531,VALID,301,VALID,0,
2010-07-23, 03:39:04,VALID,1000.22,VALID,0,VALID,93.4934,VALID,0.112286,VALID,23.1531,VALID,301,VALID,0,
2010-07-23, 03:40:04,VALID,1000.17,VALID,0,VALID,93.4857,VALID,0,VALID,23.1336,VALID,301,VALID,0,
2010-07-23, 03:41:04,VALID,1000.2,VALID,0,VALID,93.5086,VALID,0,VALID,23.1336,VALID,301,VALID,0,
2010-07-23, 03:42:04,VALID,1000.18,VALID,0,VALID,93.4934,VALID,0.112286,VALID,23.1141,VALID,301,VALID,0,
2010-07-23, 03:43:04,VALID,1000.17,VALID,0,VALID,93.5163,VALID,0,VALID,23.1336,VALID,301,VALID,0,
2010-07-23, 03:44:04,VALID,1000.19,VALID,0,VALID,93.501,VALID,0.112286,VALID,23.1336,VALID,301,VALID,0,
2010-07-23, 03:45:04,VALID,1000.17,VALID,0,VALID,93.5163,VALID,0,VALID,23.1336,VALID,301,VALID,0,
2010-07-23, 03:46:04,VALID,1000.17,VALID,0,VALID,93.5315,VALID,0.112286,VALID,23.1141,VALID,301,VALID,0,
2010-07-23, 03:47:04,VALID,1000.15,VALID,0,VALID,93.5391,VALID,0.112286,VALID,23.1141,VALID,301,VALID,0,
2010-07-23, 03:48:04,VALID,1000.15,VALID,0,VALID,93.562,VALID,0.112286,VALID,23.1141,VALID,301,VALID,0,
2010-07-23, 03:49:04,VALID,1000.13,VALID,0,VALID,93.5544,VALID,0,VALID,23.0946,VALID,301,VALID,0,
2010-07-23, 03:50:04,VALID,1000.13,VALID,0,VALID,93.5697,VALID,0,VALID,23.1159,VALID,301,VALID,0,
2010-07-23, 03:51:04,VALID,1000.13,VALID,0,VALID,93.5773,VALID,0,VALID,23.1159,VALID,301,VALID,0,